EW5401 Weather Reports


Display with metric or nautical units.
time (UTC)temp
F
wind
direction
speed
MPH
gust
MPH
rain 1hr
in
rain 24hr
in
rain mn
in
humidity
%
barometer
mb
20260502163006 49 42 1.0 6.0 0.00 0.28 0.28 76 1011.0
20260502161504 49 91 2.0 6.0 0.00 0.28 0.28 79 1011.2
20260502151501 46 53 0.0 3.0 0.01 0.28 0.28 88 1011.5
20260502150114 45 55 1.0 3.0 0.00 0.27 0.27 87 1011.5
20260502123042 47 184 0.0 1.0 0.00 0.25 0.25 94 1011.1
20260502121546 46 184 0.0 3.0 0.00 0.25 0.25 94 1011.0
20260502114542 46 181 0.0 2.0 0.00 0.25 0.25 94 1011.0
20260502113040 46 181 0.0 1.0 0.00 0.25 0.25 94 1010.9
20260502111540 46 181 0.0 2.0 0.01 0.25 0.25 94 1010.8
20260502110038 46 140 0.0 3.0 0.01 0.25 0.25 94 1010.8
20260502104547 45 115 0.0 0.0 0.03 0.25 0.25 94 1010.7
20260502103037 45 115 0.0 0.0 0.05 0.25 0.25 94 1010.5
20260502101537 45 115 0.0 0.0 0.05 0.24 0.24 94 1010.4
20260502091534 45 115 0.0 3.0 0.02 0.19 0.19 94 1010.0
20260502070025 46 51 0.0 0.0 0.04 0.11 0.11 93 1010.9
20260502064522 46 51 0.0 0.0 0.07 0.11 0.11 92 1010.8
20260502063020 46 51 0.0 0.0 0.05 0.09 0.09 92 1010.9
20260502061519 46 51 0.0 3.0 0.03 0.07 0.07 92 1010.9
20260502060018 46 69 0.0 0.0 0.03 0.07 0.07 92 1011.0
20260502054520 46 69 0.0 3.0 0.01 0.04 0.04 91 1011.1
20260502053015 46 103 0.0 2.0 0.01 0.04 0.04 91 1011.0
20260502051530 46 103 0.0 0.0 0.01 0.04 0.04 90 1011.0
20260502050013 46 113 0.0 4.0 0.04 0.04 0.04 89 1010.8
20260502044510 47 292 0.0 2.0 0.03 0.03 0.03 88 1011.1
20260502043007 47 292 0.0 0.0 0.03 0.03 0.03 87 1011.1
20260502041504 48 292 0.0 2.0 0.03 0.03 0.03 85 1011.2
20260502040000 49 292 0.0 0.0 0.00 0.00 0.00 80 1011.2
20260502034600 49 292 0.0 2.0 0.00 0.00 0.00 76 1010.8
20260502034502 49 292 0.0 2.0 0.00 0.00 0.00 76 1010.8
20260502033059 49 292 0.0 0.0 0.00 0.00 0.00 74 1010.7
20260502031612 49 292 0.0 0.0 0.00 0.00 0.00 73 1010.7
20260502030059 49 292 0.0 0.0 0.00 0.00 0.00 72 1010.7
20260502024558 49 292 0.0 2.0 0.00 0.00 0.00 72 1010.7
20260502023057 49 292 0.0 2.0 0.00 0.00 0.00 72 1010.6
20260502021559 49 292 0.0 0.0 0.00 0.00 0.00 70 1010.6
20260502020108 50 292 0.0 0.0 0.00 0.00 0.00 68 1010.8
20260502014556 50 292 0.0 0.0 0.00 0.00 0.00 66 1010.8
20260502013057 51 292 0.0 0.0 0.00 0.00 0.00 61 1010.7
20260502011558 53 292 0.0 0.0 0.00 0.00 0.00 57 1010.7
20260502010058 54 292 0.0 2.0 0.00 0.00 0.00 54 1010.6
20260502004556 55 292 1.0 4.0 0.00 0.00 0.00 50 1010.6
20260502003056 55 212 0.0 4.0 0.00 0.00 0.00 50 1010.6
20260502001555 55 165 0.0 3.0 0.00 0.00 0.00 50 1010.4
20260502000053 56 329 1.0 5.0 0.00 0.00 0.00 47 1010.0
20260501234557 56 319 0.0 0.0 0.00 0.00 0.00 50 1009.7
20260501233057 57 319 0.0 1.0 0.00 0.00 0.00 48 1009.4
20260501231559 58 319 0.0 1.0 0.00 0.00 0.00 47 1009.1
20260501230055 58 319 0.0 0.0 0.00 0.00 0.00 43 1009.0
20260501224551 58 319 0.0 2.0 0.00 0.00 0.00 42 1008.9
20260501223051 59 319 1.0 3.0 0.00 0.00 0.00 41 1008.9
20260501221550 60 290 0.0 7.0 0.00 0.00 0.00 38 1008.9
20260501220050 62 262 2.0 6.0 0.00 0.00 0.00 37 1008.8
20260501214559 62 213 0.0 4.0 0.00 0.00 0.00 36 1008.7
20260501213054 62 342 2.0 8.0 0.00 0.00 0.00 37 1008.7
20260501211548 60 294 2.0 11.0 0.00 0.00 0.00 39 1008.9
20260501210046 62 292 1.0 4.0 0.00 0.00 0.00 38 1008.7
20260501204546 61 297 0.0 7.0 0.00 0.00 0.00 38 1008.8
20260501203045 59 329 0.0 12.0 0.00 0.00 0.00 44 1008.9
20260501201549 61 218 1.0 5.0 0.00 0.00 0.00 38 1008.8
20260501200044 60 36 2.0 10.0 0.00 0.00 0.00 41 1008.9
20260501194555 62 254 3.0 10.0 0.00 0.00 0.00 39 1009.0
20260501193040 61 306 2.0 11.0 0.00 0.00 0.00 38 1008.9
20260501191539 61 269 2.0 7.0 0.00 0.00 0.00 36 1009.1
20260501190038 61 206 2.0 10.0 0.00 0.00 0.00 41 1009.3
20260501184536 60 305 2.0 9.0 0.00 0.00 0.00 42 1009.3
20260501183033 59 57 4.0 9.0 0.00 0.00 0.00 39 1009.6
20260501181535 59 19 1.0 7.0 0.00 0.00 0.00 44 1009.7
20260501180037 58 314 3.0 11.0 0.00 0.00 0.00 47 1010.0
20260501174530 58 360 3.0 10.0 0.00 0.00 0.00 45 1010.2
20260501173035 59 284 4.0 9.0 0.00 0.00 0.00 46 1010.0
20260501171531 56 261 5.0 14.0 0.00 0.00 0.00 46 1010.3
20260501170025 57 76 2.0 10.0 0.00 0.00 0.00 50 1010.3
20260501164533 57 233 2.0 9.0 0.00 0.00 0.00 52 1010.3